Temperature
6 6 6 6 5 5 5 5 4 4 4 5 5 5 4 4 4 4 4 4 4 4 4 3 3 3 3 3 3 3 3 3 3 3 3 3 3 3
5 5 5 5 5 5 5 4 4 4 3 4 4 4 4 4 4 3 3 3 3 3 3 3 3 3 3 3 2 2 2 2 2 2 2 2 2 2
4 4 4 4 4 4 4 4 4 3 3 3 3 3 3 3 3 3 3 3 3 3 3 2 2 2 2 2 2 2 2 2 2 1 1 1 2 2
4 4 4 4 3 3 3 3 3 3 3 2 2 2 2 2 2 2 2 2 2 2 2 2 2 2 2 1 1 1 1 1 1 1 1 1 1 1
3 3 3 3 3 3 3 3 3 2 2 2 2 2 2 2 2 2 2 2 2 2 2 1 1 1 1 1 1 1 1 1 0 0 0 0 0 0
3 3 2 3 2 2 2 2 2 2 2 1 1 1 1 1 1 1 1 1 1 1 1 1 1 1 1 1 0 0 0 -0 -0 -0 -0 -0 -0 -0
2 2 2 2 2 2 2 1 1 1 1 1 0 0 0 0 0 0 0 0 0 0 0 0 0 0 0 -0 -0 -0 -0 -1 -0 -1 -1 -1 -1 -1
2 1 1 1 1 1 1 1 1 0 0 -0 -0 -0 -1 -1 -1 -1 -1 -1 -1 -1 -1 -0 -0 -0 -0 -1 -1 -1 -1 -1 -1 -1 -1 -1 -1 -1
1 1 1 1 1 1 0 0 0 -0 -0 -1 -1 -1 -1 -1 -1 -2 -2 -2 -2 -2 -2 -1 -1 -1 -1 -1 -1 -1 -1 -1 -2 -2 -2 -1 -1 -1
0 0 0 0 -0 -0 -0 -0 -1 -1 -1 -1 -1 -2 -2 -2 -2 -2 -2 -3 -2 -2 -3 -3 -2 -2 -1 -1 -2 -2 -2 -2 -2 -2 -2 -2 -2 -2
-0 -0 -0 -1 -1 -1 -1 -1 -1 -1 -2 -2 -2 -2 -2 -3 -3 -3 -3 -3 -3 -3 -3 -3 -3 -3 -2 -2 -2 -2 -2 -2 -2 -2 -2 -2 -3 -2
-1 -1 -1 -1 -2 -2 -2 -2 -2 -2 -2 -2 -2 -3 -3 -3 -3 -4 -4 -4 -4 -4 -4 -4 -4 -4 -4 -3 -3 -3 -3 -3 -3 -3 -3 -3 -3 -3
-2 -2 -2 -2 -2 -2 -2 -3 -3 -3 -3 -3 -3 -3 -3 -3 -4 -4 -4 -4 -5 -5 -5 -5 -5 -5 -5 -5 -4 -3 -4 -4 -3 -3 -4 -3 -3 -3
-2 -2 -2 -3 -3 -3 -3 -3 -3 -4 -4 -4 -4 -4 -4 -4 -4 -4 -5 -5 -5 -5 -5 -5 -6 -6 -6 -6 -5 -4 -4 -4 -4 -4 -4 -4 -4 -4
-3 -3 -3 -3 -3 -4 -4 -4 -4 -4 -4 -4 -4 -4 -4 -5 -5 -5 -5 -5 -5 -5 -5 -5 -6 -6 -6 -6 -6 -5 -5 -5 -5 -5 -5 -4 -4 -4
-3 -4 -4 -4 -4 -4 -4 -5 -5 -5 -5 -5 -5 -5 -5 -5 -5 -5 -6 -6 -5 -5 -5 -6 -6 -6 -6 -6 -6 -6 -6 -6 -5 -5 -5 -5 -5 -5
-4 -4 -4 -4 -5 -5 -5 -5 -5 -5 -5 -5 -6 -6 -6 -6 -6 -6 -6 -6 -6 -6 -6 -6 -6 -6 -6 -6 -6 -6 -6 -6 -6 -6 -6 -6 -5 -5
-4 -4 -5 -5 -5 -5 -5 -5 -6 -6 -6 -6 -6 -6 -6 -6 -6 -7 -7 -7 -7 -7 -7 -7 -7 -7 -6 -6 -6 -6 -6 -6 -6 -6 -6 -6 -5 -5
-5 -5 -5 -5 -5 -5 -6 -6 -6 -6 -6 -6 -6 -6 -7 -7 -7 -7 -7 -7 -7 -7 -7 -7 -7 -8 -8 -8 -7 -7 -7 -7 -7 -6 -6 -6 -6 -5
-5 -5 -5 -6 -6 -6 -6 -6 -6 -6 -6 -6 -7 -7 -7 -7 -7 -7 -7 -7 -7 -7 -7 -7 -7 -8 -8 -8 -8 -7 -7 -7 -7 -7 -7 -6 -6 -6
-6 -6 -6 -6 -6 -6 -6 -6 -6 -7 -7 -7 -7 -7 -7 -7 -7 -7 -8 -8 -8 -8 -8 -7 -7 -8 -8 -8 -8 -7 -7 -7 -7 -7 -7 -7 -7 -6
-6 -6 -6 -6 -6 -6 -7 -7 -7 -7 -7 -7 -7 -7 -7 -8 -8 -8 -8 -8 -8 -8 -8 -8 -8 -8 -8 -8 -8 -8 -8 -7 -7 -7 -7 -7 -7 -7
-6 -6 -6 -7 -7 -7 -7 -7 -7 -7 -7 -7 -7 -8 -8 -8 -8 -8 -8 -8 -8 -8 -8 -8 -8 -8 -8 -8 -8 -8 -8 -8 -7 -7 -7 -7 -7 -7
Wind_Speed
3 3 2 2 2 2 2 3 4 3 4 3 2 2 3 3 4 4 5 6 5 6 6 7 7 8 8 8 9 9 10 10 10 11 11 12 13 14
2 2 2 2 1 1 2 2 3 3 3 2 2 2 3 3 4 4 5 5 5 6 6 7 7 8 8 8 9 9 10 10 11 12 12 13 13 14
1 2 2 2 2 1 1 2 2 2 4 2 1 2 2 2 4 4 5 4 5 6 7 7 8 8 8 8 8 9 9 10 11 12 12 13 13 14
1 2 2 1 2 2 2 2 2 2 3 3 2 1 2 2 2 2 3 4 5 6 7 8 7 7 8 8 8 9 9 10 11 12 12 13 13 14
2 2 2 2 2 2 2 2 2 1 1 2 2 1 2 2 1 2 2 3 4 6 7 7 7 8 8 9 9 9 9 10 10 11 12 12 13 14
1 1 2 3 3 3 3 3 2 1 1 2 2 2 2 2 1 2 3 2 3 4 6 6 8 9 9 9 10 10 10 10 11 11 11 12 12 13
1 1 1 2 2 3 2 2 2 2 2 2 2 2 2 2 2 2 3 3 4 3 2 4 5 6 7 9 10 10 10 11 11 11 11 12 12 13
1 1 1 2 2 2 3 3 3 3 3 3 2 3 4 3 3 3 3 3 4 1 2 5 3 4 6 7 10 12 11 11 10 11 11 12 12 13
1 1 1 1 2 1 3 3 4 5 5 3 3 4 4 4 3 3 4 4 5 3 3 5 3 5 6 9 12 12 11 11 10 11 12 12 12 12
1 2 2 2 2 3 2 2 2 3 3 3 4 4 4 3 3 3 4 4 4 3 3 4 3 4 6 7 10 10 10 10 11 11 11 11 12 12
2 2 2 3 4 3 1 1 2 2 4 5 5 5 5 5 4 2 2 3 5 4 2 3 3 4 5 4 7 8 9 11 11 11 11 11 12 11
2 2 3 4 4 4 1 2 3 3 2 2 3 4 4 4 5 3 3 4 3 3 2 2 2 2 3 3 3 5 7 10 11 12 12 12 12 8
2 2 3 5 5 5 4 3 4 2 1 2 2 2 2 2 3 4 4 4 4 4 3 2 2 2 3 4 4 4 4 5 6 8 11 12 12 8
3 2 3 5 5 5 4 4 4 2 0 1 2 3 2 3 3 4 5 5 6 7 6 4 3 3 4 5 5 4 4 5 5 5 6 10 11 11
3 4 5 5 4 3 4 5 3 1 1 2 3 3 3 3 3 3 4 4 5 6 6 6 4 4 4 5 5 5 4 4 4 4 5 5 5 6
2 3 4 3 2 2 3 2 1 2 2 3 3 3 2 3 3 3 3 3 3 4 4 6 6 5 5 6 6 7 5 4 3 4 5 5 6 6
1 0 1 1 1 1 2 2 2 2 3 2 3 3 3 3 3 3 3 3 3 4 4 3 4 5 6 6 6 7 6 5 5 4 4 6 6 6
2 2 2 2 3 3 3 3 3 3 3 3 3 3 4 4 4 3 3 4 4 4 4 3 3 3 3 4 6 6 5 5 5 4 4 6 7 6
3 3 3 3 3 3 3 3 4 4 3 4 4 4 4 4 4 4 4 4 4 4 4 3 3 3 4 6 4 4 4 5 4 5 5 5 7 7
2 3 4 4 4 4 4 4 4 4 3 4 4 4 4 4 4 4 4 5 5 4 4 3 3 4 5 5 4 4 6 5 4 5 5 5 6 8
3 3 4 4 4 4 4 4 4 4 4 4 4 4 4 4 5 5 5 7 5 4 5 5 5 6 3 3 4 4 4 6 7 5 5 5 5 5
3 4 4 4 4 4 4 4 4 4 4 4 4 4 4 4 5 5 5 5 5 5 5 5 3 3 2 4 6 6 5 5 6 8 8 8 4 3
4 4 4 4 4 4 4 4 5 5 4 4 4 4 4 4 4 5 5 5 5 5 4 4 3 2 3 4 5 5 6 5 4 4 5 7 8 9
Wind_Direction
188 186 183 194 185 177 171 181 186 220 242 241 248 270 295 294 298 290 281 279 279 280 283 286 285 289 290 295 296 297 298 299 300 300 298 300 301 303
186 178 180 187 187 179 178 187 188 198 234 233 239 271 285 301 312 303 290 291 288 290 291 289 286 285 288 293 295 296 297 298 299 299 298 299 300 302
176 174 183 180 187 201 195 199 199 195 229 263 256 284 265 275 308 306 296 289 292 296 294 293 289 288 293 297 299 299 299 300 299 298 298 299 299 300
193 169 176 178 182 199 196 208 215 218 218 252 270 271 267 264 275 284 304 303 294 296 298 297 293 295 298 298 299 299 300 299 298 299 299 300 302 302
200 193 197 186 207 220 214 220 229 247 226 236 266 261 263 267 279 294 290 299 303 299 299 294 297 300 299 296 297 297 296 295 296 298 300 300 301 302
208 201 206 206 215 218 222 219 214 222 228 237 262 266 262 265 262 283 300 292 290 296 296 291 293 295 294 294 294 293 292 293 295 298 300 300 302 303
204 223 233 248 247 232 233 219 204 215 227 239 263 277 280 277 273 276 290 304 286 263 276 284 288 287 287 287 287 287 288 289 291 294 296 299 301 301
213 246 277 289 289 294 286 270 240 229 232 234 258 263 265 271 277 284 292 302 294 268 291 289 273 274 278 276 283 288 286 286 287 291 293 296 298 299
216 244 277 284 300 276 279 288 280 273 263 246 243 255 257 258 263 274 275 273 274 277 290 283 273 274 281 282 287 287 287 286 289 293 296 295 296 296
233 231 242 261 260 243 238 247 258 269 275 263 227 237 246 246 243 253 266 282 280 262 243 265 274 278 289 286 281 282 286 291 293 294 296 298 298 297
250 243 244 249 269 268 246 240 268 279 303 307 301 301 294 284 283 257 267 282 289 277 235 245 279 300 290 277 279 284 289 292 296 297 297 297 298 297
254 257 267 271 275 279 233 220 249 259 267 304 315 314 315 303 296 255 235 254 275 275 229 244 278 314 303 284 284 290 293 293 297 298 298 297 299 298
247 251 263 280 284 285 283 237 259 267 230 262 278 282 290 287 290 282 261 242 253 257 239 241 265 269 266 292 298 284 278 288 298 297 295 295 295 293
248 246 258 275 281 282 287 284 290 308 238 248 266 273 278 282 282 288 285 275 262 258 249 246 250 253 270 283 284 290 286 284 285 286 290 294 293 290
249 256 264 272 279 283 287 287 291 248 243 258 263 271 271 270 279 287 293 295 291 274 255 253 248 255 253 264 272 279 291 284 267 271 283 283 283 285
273 266 270 278 285 286 289 294 288 249 247 254 263 267 273 270 270 271 281 292 295 291 280 265 253 246 259 264 264 272 272 268 274 276 281 282 281 274
226 230 252 272 264 272 271 264 256 261 267 261 263 271 275 276 277 274 270 272 273 282 294 298 290 275 259 256 260 262 266 271 271 281 287 289 281 269
226 221 235 235 239 248 256 262 255 254 252 254 257 262 266 271 277 279 276 269 272 274 276 282 298 313 304 278 244 254 265 275 282 281 276 281 286 280
240 229 236 241 242 244 246 252 256 254 252 251 254 258 264 268 271 273 275 275 274 271 269 264 264 274 290 295 287 244 257 279 283 286 276 269 278 284
241 237 242 244 243 244 248 253 257 258 254 253 253 253 253 260 264 266 268 271 275 276 274 264 252 253 256 268 277 283 269 261 268 278 283 281 276 281
251 249 247 247 247 248 249 251 250 252 252 251 253 254 253 255 261 262 267 276 278 272 271 271 266 278 276 275 280 284 283 274 269 267 274 282 287 289
252 254 254 252 250 248 249 252 253 252 250 249 252 253 255 253 257 262 264 266 266 266 270 275 275 278 264 261 271 280 290 298 299 290 276 262 258 263
254 257 258 260 258 254 251 251 253 255 249 248 250 253 255 259 258 259 264 263 264 268 272 281 286 280 271 262 267 278 285 294 303 308 297 297 286 277
Height
1488 1490 1491 1492 1494 1495 1496 1497 1498 1497 1497 1498 1499 1499 1500 1500 1500 1500 1499 1499 1499 1499 1498 1498 1498 1497 1496 1496 1495 1495 1494 1493 1493 1492 1491 1490 1489 1488
1484 1485 1487 1488 1489 1490 1491 1493 1493 1493 1493 1493 1495 1495 1495 1495 1496 1495 1495 1495 1494 1494 1493 1493 1493 1493 1492 1491 1490 1490 1489 1488 1487 1486 1486 1484 1483 1482
1480 1481 1482 1484 1485 1486 1487 1488 1488 1489 1488 1489 1490 1491 1491 1491 1491 1491 1491 1490 1489 1489 1489 1488 1488 1487 1487 1486 1485 1485 1484 1483 1482 1481 1480 1479 1478 1477
1476 1477 1478 1480 1480 1482 1483 1483 1484 1485 1485 1484 1485 1486 1486 1486 1486 1486 1486 1485 1484 1484 1484 1483 1483 1482 1481 1481 1480 1479 1478 1477 1477 1476 1475 1474 1472 1471
1473 1474 1474 1476 1476 1477 1478 1479 1480 1480 1481 1480 1480 1481 1481 1481 1481 1481 1480 1480 1480 1479 1479 1478 1477 1477 1476 1476 1475 1474 1473 1472 1471 1470 1469 1468 1467 1465
1469 1470 1471 1472 1473 1473 1474 1475 1475 1476 1476 1476 1476 1476 1476 1476 1476 1475 1474 1474 1474 1474 1473 1473 1472 1471 1471 1470 1470 1469 1468 1467 1466 1465 1464 1462 1461 1459
1466 1467 1468 1468 1469 1469 1470 1470 1471 1471 1472 1472 1471 1471 1471 1471 1470 1470 1469 1469 1468 1468 1467 1467 1466 1466 1465 1465 1464 1463 1462 1461 1460 1459 1458 1457 1455 1454
1463 1464 1464 1464 1465 1466 1466 1467 1467 1468 1468 1468 1467 1467 1467 1467 1466 1466 1465 1464 1462 1463 1462 1462 1461 1460 1460 1459 1458 1457 1457 1456 1454 1453 1452 1451 1450 1448
1460 1461 1461 1461 1462 1462 1462 1462 1463 1463 1464 1464 1463 1463 1463 1463 1462 1461 1461 1460 1459 1458 1457 1455 1456 1455 1454 1453 1453 1452 1451 1450 1449 1448 1446 1445 1444 1442
1457 1457 1458 1458 1458 1458 1458 1458 1459 1459 1459 1459 1459 1459 1459 1459 1458 1458 1457 1455 1454 1454 1453 1450 1449 1449 1448 1447 1447 1446 1446 1445 1443 1442 1441 1439 1438 1437
1453 1454 1454 1454 1455 1455 1454 1454 1454 1455 1455 1455 1455 1455 1455 1454 1454 1453 1452 1450 1448 1448 1448 1447 1444 1443 1442 1441 1441 1441 1440 1439 1438 1436 1435 1434 1432 1431
1450 1450 1450 1451 1451 1451 1451 1450 1450 1450 1450 1450 1450 1450 1450 1450 1449 1449 1447 1446 1444 1443 1442 1442 1440 1439 1436 1435 1435 1435 1434 1433 1432 1431 1429 1428 1427 1425
1446 1446 1447 1447 1447 1447 1447 1446 1446 1446 1445 1445 1445 1445 1445 1445 1445 1444 1443 1442 1441 1440 1439 1438 1436 1435 1434 1431 1429 1429 1429 1427 1426 1425 1424 1423 1421 1420
1442 1443 1443 1443 1443 1443 1443 1442 1442 1442 1441 1441 1441 1441 1440 1440 1439 1439 1438 1438 1437 1436 1435 1434 1432 1431 1429 1427 1424 1423 1423 1422 1421 1419 1418 1417 1416 1415
1439 1439 1439 1439 1439 1439 1439 1438 1438 1438 1437 1437 1436 1436 1436 1435 1434 1434 1433 1432 1432 1431 1430 1429 1428 1426 1425 1423 1420 1419 1417 1416 1416 1414 1413 1411 1410 1409
1435 1435 1435 1435 1435 1434 1435 1434 1434 1434 1434 1433 1432 1432 1431 1430 1429 1428 1427 1426 1425 1425 1425 1424 1422 1421 1419 1418 1417 1414 1413 1411 1410 1409 1408 1406 1405 1404
1431 1431 1431 1430 1430 1430 1430 1430 1430 1430 1430 1429 1428 1427 1426 1426 1425 1424 1423 1422 1421 1419 1418 1418 1417 1416 1415 1413 1411 1409 1408 1406 1405 1404 1402 1400 1399 1399
1427 1426 1426 1426 1426 1426 1426 1426 1426 1425 1425 1424 1423 1423 1422 1421 1420 1420 1419 1418 1416 1415 1414 1413 1412 1410 1409 1408 1407 1405 1404 1402 1401 1400 1398 1396 1394 1394
1423 1422 1422 1422 1422 1422 1421 1421 1421 1420 1420 1419 1419 1418 1417 1417 1416 1415 1414 1413 1412 1411 1410 1409 1408 1407 1405 1402 1401 1402 1400 1398 1396 1395 1393 1392 1389 1388
1418 1418 1418 1418 1418 1417 1417 1416 1416 1415 1415 1415 1414 1414 1413 1412 1411 1410 1410 1409 1407 1406 1405 1405 1404 1403 1402 1400 1397 1396 1397 1394 1392 1390 1389 1387 1385 1384
1414 1414 1414 1414 1413 1413 1412 1412 1411 1411 1410 1410 1409 1409 1408 1408 1407 1406 1405 1404 1403 1402 1401 1400 1400 1400 1398 1397 1394 1391 1391 1391 1389 1387 1385 1383 1380 1379
1410 1410 1410 1409 1409 1408 1407 1407 1406 1406 1405 1405 1404 1404 1404 1403 1402 1402 1401 1400 1399 1398 1397 1396 1395 1395 1394 1392 1390 1388 1386 1386 1385 1384 1382 1381 1378 1376
1406 1405 1405 1404 1404 1403 1403 1402 1401 1401 1400 1400 1400 1399 1399 1398 1398 1397 1397 1396 1395 1394 1393 1392 1391 1390 1389 1388 1387 1385 1383 1381 1380 1379 1378 1377 1376 1374